User: anonymous   Login
Location: Appeville
(49.3218°N, 1.3427°W)
Time: 13:05:49
(UTC+00:00)
Language:

NOSS 2-1 (E) - Orbit

View from above orbital plane
View from above orbital plane
View from above satellite
View from above satellite

Ground track
Ground track

The orbit data is extracted from the following two-line orbital elements,

1 20642U 90050E   20020.77596061 0.00000300  00000-0  49239-4 0    00
2 20642  63.3224 256.4209 0863717  41.5826 318.4174 13.41966231    06
Epoch (UTC): 20 January 2020 18:37:22
Eccentricity: 0.0863717
inclination: 63.3224°
perigee height: 456 km
apogee height: 1748 km
right ascension of ascending node: 256.4209°
argument of perigee: 41.5826°
revolutions per day: 13.41966231
mean anomaly at epoch: 318.4174°
orbit number at epoch: 0

The dashed part of the orbit path shows where the satellite is in the earth's shadow,  

DLR